Time,TemperatureF,DewpointF,PressureIn,WindDirection,WindDirectionDegrees,WindSpeedMPH,WindSpeedGustMPH,Humidity,HourlyPrecipIn,Conditions,Clouds,dailyrainin,SoftwareType,DateUTC
2013-01-29 00:00:00,6.0,-99.9,-100.00,WNW,292,8.0,19.0,-999,-99.99,,,-99.99,,2013-01-29 07:00:00,
2013-01-29 00:32:00,6.0,-99.9,-100.00,WNW,292,8.0,19.0,-999,-99.99,,,-99.99,,2013-01-29 07:32:00,
2013-01-29 00:42:00,6.0,-99.9,-100.00,WNW,292,8.0,19.0,-999,-99.99,,,-99.99,,2013-01-29 07:42:00,
2013-01-29 00:52:00,6.0,-99.9,-100.00,WNW,292,8.0,19.0,-999,-99.99,,,-99.99,,2013-01-29 07:52:00,
2013-01-29 01:00:00,6.0,-99.9,-100.00,West,277,7.0,15.0,-999,-99.99,,,-99.99,,2013-01-29 08:00:00,
2013-01-29 01:32:00,6.0,-99.9,-100.00,West,277,7.0,15.0,-999,-99.99,,,-99.99,,2013-01-29 08:32:00,
2013-01-29 01:42:00,6.0,-99.9,-100.00,West,277,7.0,15.0,-999,-99.99,,,-99.99,,2013-01-29 08:42:00,
2013-01-29 01:52:00,6.0,-99.9,-100.00,West,277,7.0,15.0,-999,-99.99,,,-99.99,,2013-01-29 08:52:00,
2013-01-29 02:00:00,5.0,-99.9,-100.00,West,264,10.0,21.0,-999,-99.99,,,-99.99,,2013-01-29 09:00:00,
2013-01-29 02:32:00,5.0,-99.9,-100.00,West,264,10.0,21.0,-999,-99.99,,,-99.99,,2013-01-29 09:32:00,
2013-01-29 02:42:00,5.0,-99.9,-100.00,West,264,10.0,21.0,-999,-99.99,,,-99.99,,2013-01-29 09:42:00,
2013-01-29 02:52:00,5.0,-99.9,-100.00,West,264,10.0,21.0,-999,-99.99,,,-99.99,,2013-01-29 09:52:00,
2013-01-29 03:00:00,6.0,-99.9,-100.00,WSW,256,13.0,23.0,-999,-99.99,,,-99.99,,2013-01-29 10:00:00,
2013-01-29 03:32:00,6.0,-99.9,-100.00,WSW,256,13.0,23.0,-999,-99.99,,,-99.99,,2013-01-29 10:32:00,
2013-01-29 03:42:00,6.0,-99.9,-100.00,WSW,256,13.0,23.0,-999,-99.99,,,-99.99,,2013-01-29 10:42:00,
2013-01-29 03:52:00,6.0,-99.9,-100.00,WSW,256,13.0,23.0,-999,-99.99,,,-99.99,,2013-01-29 10:52:00,
2013-01-29 04:00:00,6.0,-99.9,-100.00,West,266,10.0,17.0,-999,-99.99,,,-99.99,,2013-01-29 11:00:00,
2013-01-29 04:32:00,6.0,-99.9,-100.00,West,266,10.0,17.0,-999,-99.99,,,-99.99,,2013-01-29 11:32:00,
2013-01-29 04:42:00,6.0,-99.9,-100.00,West,266,10.0,17.0,-999,-99.99,,,-99.99,,2013-01-29 11:42:00,
2013-01-29 04:53:00,6.0,-99.9,-100.00,West,266,10.0,17.0,-999,-99.99,,,-99.99,,2013-01-29 11:53:00,
2013-01-29 05:00:00,7.0,-99.9,-100.00,West,269,8.0,18.0,-999,-99.99,,,-99.99,,2013-01-29 12:00:00,
2013-01-29 05:33:00,7.0,-99.9,-100.00,West,269,8.0,18.0,-999,-99.99,,,-99.99,,2013-01-29 12:33:00,
2013-01-29 05:43:00,7.0,-99.9,-100.00,West,269,8.0,18.0,-999,-99.99,,,-99.99,,2013-01-29 12:43:00,
2013-01-29 05:53:00,7.0,-99.9,-100.00,West,269,8.0,18.0,-999,-99.99,,,-99.99,,2013-01-29 12:53:00,
2013-01-29 06:00:00,7.0,-99.9,-100.00,WNW,287,6.0,16.0,-999,-99.99,,,-99.99,,2013-01-29 13:00:00,
2013-01-29 06:32:00,7.0,-99.9,-100.00,WNW,287,6.0,16.0,-999,-99.99,,,-99.99,,2013-01-29 13:32:00,
2013-01-29 06:43:00,7.0,-99.9,-100.00,WNW,287,6.0,16.0,-999,-99.99,,,-99.99,,2013-01-29 13:43:00,
2013-01-29 06:53:00,7.0,-99.9,-100.00,WNW,287,6.0,16.0,-999,-99.99,,,-99.99,,2013-01-29 13:53:00,
2013-01-29 07:00:00,8.0,-99.9,-100.00,WNW,297,9.0,22.0,-999,-99.99,,,-99.99,,2013-01-29 14:00:00,
2013-01-29 07:33:00,8.0,-99.9,-100.00,WNW,297,9.0,22.0,-999,-99.99,,,-99.99,,2013-01-29 14:33:00,
2013-01-29 07:43:00,8.0,-99.9,-100.00,WNW,297,9.0,22.0,-999,-99.99,,,-99.99,,2013-01-29 14:43:00,
2013-01-29 07:53:00,8.0,-99.9,-100.00,WNW,297,9.0,22.0,-999,-99.99,,,-99.99,,2013-01-29 14:53:00,
2013-01-29 08:00:00,9.0,-99.9,-100.00,WNW,292,10.0,26.0,-999,-99.99,,,-99.99,,2013-01-29 15:00:00,
2013-01-29 08:33:00,9.0,-99.9,-100.00,WNW,292,10.0,26.0,-999,-99.99,,,-99.99,,2013-01-29 15:33:00,
2013-01-29 08:43:00,9.0,-99.9,-100.00,WNW,292,10.0,26.0,-999,-99.99,,,-99.99,,2013-01-29 15:43:00,
2013-01-29 08:53:00,9.0,-99.9,-100.00,WNW,292,10.0,26.0,-999,-99.99,,,-99.99,,2013-01-29 15:53:00,
2013-01-29 09:00:00,9.0,-99.9,-100.00,WNW,291,10.0,23.0,-999,-99.99,,,-99.99,,2013-01-29 16:00:00,
2013-01-29 09:33:00,9.0,-99.9,-100.00,WNW,291,10.0,23.0,-999,-99.99,,,-99.99,,2013-01-29 16:33:00,
2013-01-29 09:43:00,9.0,-99.9,-100.00,WNW,291,10.0,23.0,-999,-99.99,,,-99.99,,2013-01-29 16:43:00,
2013-01-29 09:53:00,9.0,-99.9,-100.00,WNW,291,10.0,23.0,-999,-99.99,,,-99.99,,2013-01-29 16:53:00,
2013-01-29 10:00:00,11.0,-99.9,-100.00,WNW,297,11.0,25.0,-999,-99.99,,,-99.99,,2013-01-29 17:00:00,
2013-01-29 10:33:00,11.0,-99.9,-100.00,WNW,297,11.0,25.0,-999,-99.99,,,-99.99,,2013-01-29 17:33:00,
2013-01-29 10:43:00,11.0,-99.9,-100.00,WNW,297,11.0,25.0,-999,-99.99,,,-99.99,,2013-01-29 17:43:00,
2013-01-29 10:53:00,11.0,-99.9,-100.00,WNW,297,11.0,25.0,-999,-99.99,,,-99.99,,2013-01-29 17:53:00,
2013-01-29 11:00:00,12.0,-99.9,-100.00,NW,305,7.0,26.0,-999,-99.99,,,-99.99,,2013-01-29 18:00:00,
2013-01-29 11:34:00,12.0,-99.9,-100.00,NW,305,7.0,26.0,-999,-99.99,,,-99.99,,2013-01-29 18:34:00,
2013-01-29 11:43:00,12.0,-99.9,-100.00,NW,305,7.0,26.0,-999,-99.99,,,-99.99,,2013-01-29 18:43:00,
2013-01-29 11:52:00,12.0,-99.9,-100.00,NW,305,7.0,26.0,-999,-99.99,,,-99.99,,2013-01-29 18:52:00,
2013-01-29 12:00:00,13.0,-99.9,-100.00,NW,326,8.0,25.0,-999,-99.99,,,-99.99,,2013-01-29 19:00:00,
2013-01-29 12:33:00,13.0,-99.9,-100.00,NW,326,8.0,25.0,-999,-99.99,,,-99.99,,2013-01-29 19:33:00,
2013-01-29 12:42:00,13.0,-99.9,-100.00,NW,326,8.0,25.0,-999,-99.99,,,-99.99,,2013-01-29 19:42:00,
2013-01-29 12:52:00,13.0,-99.9,-100.00,NW,326,8.0,25.0,-999,-99.99,,,-99.99,,2013-01-29 19:52:00,
2013-01-29 13:00:00,12.0,-99.9,-100.00,NNW,332,9.0,24.0,-999,-99.99,,,-99.99,,2013-01-29 20:00:00,
2013-01-29 13:34:00,12.0,-99.9,-100.00,NNW,332,9.0,24.0,-999,-99.99,,,-99.99,,2013-01-29 20:34:00,
2013-01-29 13:43:00,12.0,-99.9,-100.00,NNW,332,9.0,24.0,-999,-99.99,,,-99.99,,2013-01-29 20:43:00,
2013-01-29 13:54:00,12.0,-99.9,-100.00,NNW,332,9.0,24.0,-999,-99.99,,,-99.99,,2013-01-29 20:54:00,
2013-01-29 14:00:00,12.0,-99.9,-100.00,NNW,329,8.0,25.0,-999,-99.99,,,-99.99,,2013-01-29 21:00:00,
2013-01-29 14:34:00,12.0,-99.9,-100.00,NNW,329,8.0,25.0,-999,-99.99,,,-99.99,,2013-01-29 21:34:00,
2013-01-29 14:43:00,12.0,-99.9,-100.00,NNW,329,8.0,25.0,-999,-99.99,,,-99.99,,2013-01-29 21:43:00,
2013-01-29 14:53:00,12.0,-99.9,-100.00,NNW,329,8.0,25.0,-999,-99.99,,,-99.99,,2013-01-29 21:53:00,
2013-01-29 15:00:00,11.0,-99.9,-100.00,NNW,331,10.0,24.0,-999,-99.99,,,-99.99,,2013-01-29 22:00:00,
2013-01-29 15:33:00,11.0,-99.9,-100.00,NNW,331,10.0,24.0,-999,-99.99,,,-99.99,,2013-01-29 22:33:00,
2013-01-29 15:43:00,11.0,-99.9,-100.00,NNW,331,10.0,24.0,-999,-99.99,,,-99.99,,2013-01-29 22:43:00,
2013-01-29 15:53:00,11.0,-99.9,-100.00,NNW,331,10.0,24.0,-999,-99.99,,,-99.99,,2013-01-29 22:53:00,
2013-01-29 16:00:00,11.0,-99.9,-100.00,NW,326,10.0,22.0,-999,-99.99,,,-99.99,,2013-01-29 23:00:00,
2013-01-29 16:33:00,11.0,-99.9,-100.00,NW,326,10.0,22.0,-999,-99.99,,,-99.99,,2013-01-29 23:33:00,
2013-01-29 16:43:00,11.0,-99.9,-100.00,NW,326,10.0,22.0,-999,-99.99,,,-99.99,,2013-01-29 23:43:00,
2013-01-29 16:53:00,11.0,-99.9,-100.00,NW,326,10.0,22.0,-999,-99.99,,,-99.99,,2013-01-29 23:53:00,
2013-01-29 17:00:00,10.0,-99.9,-100.00,NNW,335,10.0,28.0,-999,-99.99,,,-99.99,,2013-01-30 00:00:00,
2013-01-29 17:33:00,10.0,-99.9,-100.00,NNW,335,10.0,28.0,-999,-99.99,,,-99.99,,2013-01-30 00:33:00,
2013-01-29 17:43:00,10.0,-99.9,-100.00,NNW,335,10.0,28.0,-999,-99.99,,,-99.99,,2013-01-30 00:43:00,
2013-01-29 17:53:00,10.0,-99.9,-100.00,NNW,335,10.0,28.0,-999,-99.99,,,-99.99,,2013-01-30 00:53:00,
2013-01-29 18:00:00,9.0,-99.9,-100.00,NNW,329,12.0,30.0,-999,-99.99,,,-99.99,,2013-01-30 01:00:00,
2013-01-29 18:32:00,9.0,-99.9,-100.00,NNW,329,12.0,30.0,-999,-99.99,,,-99.99,,2013-01-30 01:32:00,
2013-01-29 18:43:00,9.0,-99.9,-100.00,NNW,329,12.0,30.0,-999,-99.99,,,-99.99,,2013-01-30 01:43:00,
2013-01-29 18:52:00,9.0,-99.9,-100.00,NNW,329,12.0,30.0,-999,-99.99,,,-99.99,,2013-01-30 01:52:00,
2013-01-29 19:00:00,8.0,-99.9,-100.00,NNW,331,12.0,32.0,-999,-99.99,,,-99.99,,2013-01-30 02:00:00,
2013-01-29 19:33:00,8.0,-99.9,-100.00,NNW,331,12.0,32.0,-999,-99.99,,,-99.99,,2013-01-30 02:33:00,
2013-01-29 19:42:00,8.0,-99.9,-100.00,NNW,331,12.0,32.0,-999,-99.99,,,-99.99,,2013-01-30 02:42:00,
2013-01-29 19:53:00,8.0,-99.9,-100.00,NNW,331,12.0,32.0,-999,-99.99,,,-99.99,,2013-01-30 02:53:00,
2013-01-29 20:00:00,9.0,-99.9,-100.00,NW,326,8.0,25.0,-999,-99.99,,,-99.99,,2013-01-30 03:00:00,
2013-01-29 20:33:00,9.0,-99.9,-100.00,NW,326,8.0,25.0,-999,-99.99,,,-99.99,,2013-01-30 03:33:00,
2013-01-29 20:42:00,9.0,-99.9,-100.00,NW,326,8.0,25.0,-999,-99.99,,,-99.99,,2013-01-30 03:42:00,
2013-01-29 20:52:00,9.0,-99.9,-100.00,NW,326,8.0,25.0,-999,-99.99,,,-99.99,,2013-01-30 03:52:00,
2013-01-29 21:00:00,8.0,-99.9,-100.00,NW,325,9.0,22.0,-999,-99.99,,,-99.99,,2013-01-30 04:00:00,
2013-01-29 21:32:00,8.0,-99.9,-100.00,NW,325,9.0,22.0,-999,-99.99,,,-99.99,,2013-01-30 04:32:00,
2013-01-29 21:42:00,8.0,-99.9,-100.00,NW,325,9.0,22.0,-999,-99.99,,,-99.99,,2013-01-30 04:42:00,
2013-01-29 21:52:00,8.0,-99.9,-100.00,NW,325,9.0,22.0,-999,-99.99,,,-99.99,,2013-01-30 04:52:00,
2013-01-29 22:00:00,9.0,-99.9,-100.00,NW,321,8.0,21.0,-999,-99.99,,,-99.99,,2013-01-30 05:00:00,
2013-01-29 22:33:00,9.0,-99.9,-100.00,NW,321,8.0,21.0,-999,-99.99,,,-99.99,,2013-01-30 05:33:00,
2013-01-29 22:43:00,9.0,-99.9,-100.00,NW,321,8.0,21.0,-999,-99.99,,,-99.99,,2013-01-30 05:43:00,
2013-01-29 22:52:00,9.0,-99.9,-100.00,NW,321,8.0,21.0,-999,-99.99,,,-99.99,,2013-01-30 05:52:00,
2013-01-29 23:00:00,9.0,-99.9,-100.00,NW,308,8.0,22.0,-999,-99.99,,,-99.99,,2013-01-30 06:00:00,
2013-01-29 23:32:00,9.0,-99.9,-100.00,NW,308,8.0,22.0,-999,-99.99,,,-99.99,,2013-01-30 06:32:00,
2013-01-29 23:42:00,9.0,-99.9,-100.00,NW,308,8.0,22.0,-999,-99.99,,,-99.99,,2013-01-30 06:42:00,
2013-01-29 23:52:00,9.0,-99.9,-100.00,NW,308,8.0,22.0,-999,-99.99,,,-99.99,,2013-01-30 06:52:00,